Location: Lesignano de� Bagni
(44.6500°N, 10.3000°E)
Time: 11:09:37
(UTC+00:00)

SAR-Lupe-1 - Pass Details

Date: 03 March 2021
Orbit: 482 x 483 km, 98.2° (Epoch: 30 March)

Event Time Altitude Azimuth Distance (km) Brightness Sun altitude
Rises 18:24:56 0° 10° (N) 2,558 7.7 -14.2°
Reaches altitude 10° 18:27:01 10° 8° (N) 1,673 6.8 -14.6°
Maximum altitude 18:30:34 66° 286° (WNW) 531 4.4 -15.2°
Drops below altitude 10° 18:34:07 10° 204° (SSW) 1,659 7.0 -15.8°
Sets 18:36:10 0° 201° (SSW) 2,534 7.9 -16.2°
